This is the latest recevied weather packets stored in our database for station/object DC0VZ-6. If no packets are shown the sender has not sent any weather packets the latest 1 day(s).
| Time | Temp. | Humidity | Pressure | Rain* | Wind** | Luminosity | Snow |
|---|---|---|---|---|---|---|---|
| 1778087173 | 13.89° C | 45% | 975.1 hPa | 0 mm | - | - | - |
| 1778083572 | 15.56° C | 46% | 975.4 hPa | 0 mm | - | - | - |
| 1778082972 | 16.11° C | 46% | 975.1 hPa | 0 mm | - | - | - |
| 1778081172 | 16.11° C | 47% | 975.2 hPa | 0 mm | - | - | - |
| 1778080572 | 16.67° C | 47% | 975.1 hPa | 0 mm | - | - | - |
| 1778078772 | 16.11° C | 47% | 974.8 hPa | 0 mm | - | - | - |
| 1778076372 | 16.11° C | 48% | 974.8 hPa | 0 mm | - | - | - |
| 1778073371 | 16.11° C | 49% | 974.8 hPa | 0 mm | - | - | - |
| 1778072771 | 17.22° C | 49% | 974.8 hPa | 0 mm | - | - | - |
| 1778072171 | 18.33° C | 50% | 974.6 hPa | 0 mm | - | - | - |
| 1778070971 | 17.22° C | 50% | 974.3 hPa | 0 mm | - | - | - |
| 1778069170 | 16.67° C | 51% | 974.5 hPa | 0 mm | - | - | - |
| 1778068570 | 16.11° C | 53% | 974.6 hPa | 0 mm | - | - | - |
| 1778067970 | 17.22° C | 53% | 974.6 hPa | 0 mm | - | - | - |
| 1778066770 | 16.67° C | 53% | 974.6 hPa | 0 mm | - | - | - |
| 1778066170 | 18.33° C | 55% | 974.6 hPa | 0 mm | - | - | - |
| 1778064970 | 18.33° C | 56% | 974.8 hPa | 0 mm | - | - | - |
| 1778064370 | 17.22° C | 56% | 974.8 hPa | 0 mm | - | - | - |
| 1778059574 | 17.22° C | 57% | 974.5 hPa | 0 mm | - | - | - |
| 1778058374 | 15.56° C | 58% | 974.4 hPa | 0 mm | - | - | - |
| 1778057774 | 15° C | 58% | 974.1 hPa | 0 mm | - | - | - |
| 1778057174 | 14.44° C | 58% | 974.1 hPa | 0 mm | - | - | - |
| 1778056574 | 14.44° C | 58% | 973.9 hPa | 0 mm | - | - | - |
| 1778055373 | 13.89° C | 58% | 973.9 hPa | 0 mm | - | - | - |
| 1778054773 | 13.89° C | 58% | 973.9 hPa | 0 mm | - | - | - |
* Rain latest hour (hover to see other rain measurements)
** Current wind speed in m/s (hover to see current wind gust speed)